Wind_Speed
55 54 54 54 55 67 70 61 54 48 46 47 46 43 39 39 43 45 44 42 41 45 46 44 42 45 44 41 41 42 42 42 42 42 43 45 46 47 48 51 55 59 60 61 61 61 61 61 61 60 60 59 59 58 58 58 58 58 58 58 58 58 57 57 57 57 58 58 58 58 58 57 56 56 56 55 55 54 53 53 52 52 51 51 50
53 54 57 57 55 62 71 72 67 60 53 50 48 45 41 40 44 44 41 39 39 40 42 41 41 43 44 45 46 46 46 47 46 44 44 45 46 45 46 46 47 51 53 55 57 57 58 58 58 58 58 57 57 56 55 55 55 55 55 55 55 55 55 55 55 56 56 56 56 55 55 54 54 53 53 52 51 51 50 50 49 49 48 47 46
55 55 58 60 60 58 64 69 67 62 54 51 51 48 43 42 44 44 42 41 41 41 42 43 44 45 47 49 48 46 47 48 47 47 46 46 46 45 46 44 42 45 48 51 53 54 54 55 55 55 55 55 55 54 53 53 53 53 53 53 53 53 53 53 54 53 53 53 53 53 52 51 51 50 49 49 49 48 48 47 46 45 44 43 42
53 55 57 60 62 60 62 65 67 65 56 51 52 48 45 44 43 45 44 44 44 43 43 43 45 46 47 48 47 46 46 47 47 47 46 46 46 45 45 43 40 40 43 46 49 50 51 51 51 52 52 52 52 52 52 51 51 51 51 51 51 51 51 51 51 51 51 50 50 49 49 48 47 47 46 46 45 45 44 43 42 41 40 39 38
49 52 57 59 60 59 61 62 64 67 63 57 55 49 45 45 46 46 44 44 46 45 44 43 43 43 44 44 44 44 44 46 46 45 45 45 44 42 43 41 37 36 37 39 41 43 45 47 48 49 49 50 50 50 49 49 49 49 49 49 49 49 49 49 48 48 47 47 46 45 45 45 44 44 43 42 42 41 40 39 37 36 36 35 34
48 50 55 58 58 56 58 60 62 63 62 64 63 55 48 46 44 40 38 38 42 45 46 44 42 41 41 42 43 45 44 45 45 43 43 42 40 40 40 36 32 30 29 30 33 35 39 42 45 46 47 47 47 46 46 46 46 46 46 46 46 46 46 45 45 44 43 43 42 42 42 42 41 40 39 38 37 37 35 34 33 33 32 31 30
46 48 52 54 54 54 56 60 64 61 58 60 62 57 50 43 35 33 33 32 34 39 42 43 43 41 41 43 45 45 44 43 43 42 40 37 36 36 32 27 25 24 25 27 30 32 35 38 41 44 45 45 44 44 43 43 43 42 42 42 42 42 42 41 40 40 40 39 39 39 39 39 38 36 35 34 33 32 31 30 30 30 29 28 28
49 49 51 51 49 49 55 60 64 63 59 56 56 53 48 39 32 35 35 31 31 33 36 40 42 43 43 45 45 43 42 41 40 39 36 32 31 28 23 22 23 25 27 29 31 33 34 35 37 40 42 43 42 41 40 39 39 38 38 38 38 38 38 37 37 37 37 37 36 36 36 35 34 32 30 29 29 28 28 28 28 27 26 26 26
51 52 52 50 47 46 51 57 60 61 56 52 50 48 45 42 40 41 37 32 31 31 34 36 39 41 43 44 42 40 39 38 37 36 32 28 27 23 21 22 25 27 29 30 32 33 34 33 34 36 38 39 38 37 36 35 34 34 34 34 35 35 34 34 34 34 34 34 33 33 32 31 29 27 26 26 26 26 26 26 25 25 24 23 22
48 51 50 47 46 46 48 53 55 56 52 50 48 47 46 46 45 43 38 34 33 33 33 34 36 38 39 40 39 37 36 36 36 33 28 26 25 22 22 24 27 29 31 32 33 33 33 32 32 33 34 34 34 32 31 31 30 30 31 31 31 31 32 31 31 31 31 31 30 29 28 26 25 24 24 24 24 24 24 23 23 23 22 20 20
44 46 46 44 44 45 48 49 52 53 53 54 52 49 48 46 44 42 38 35 34 34 33 33 33 35 37 37 36 35 34 36 35 30 26 26 26 25 25 26 29 31 32 34 34 34 33 32 30 30 31 31 29 28 27 27 26 27 28 28 29 29 29 29 29 29 28 28 27 25 24 23 23 23 23 22 22 22 22 22 21 20 18 18 20
36 39 40 42 41 43 46 46 49 52 55 57 53 49 46 43 41 40 37 35 34 33 33 32 32 33 34 34 34 33 34 35 33 29 27 28 30 29 28 28 30 32 33 34 35 35 33 32 29 28 29 28 27 26 25 24 24 25 26 27 27 27 26 26 26 26 25 24 23 22 22 22 21 21 21 20 20 20 20 20 19 17 17 18 20
29 32 35 37 35 38 41 42 46 51 54 55 51 46 43 41 38 37 37 35 33 32 31 31 31 31 32 32 32 32 32 32 31 29 27 28 30 30 30 28 29 31 33 34 35 35 33 31 29 29 28 25 24 23 22 21 21 22 24 24 24 24 23 23 23 22 22 21 21 20 19 20 19 19 18 18 18 18 18 17 15 15 16 18 18
25 29 32 35 35 36 39 42 44 48 52 51 46 41 41 43 40 37 37 34 32 31 29 29 29 30 30 30 31 31 30 30 30 28 25 26 27 29 29 27 28 30 32 34 34 34 33 30 28 28 27 23 19 18 18 17 18 19 20 21 21 20 19 19 20 19 19 19 18 18 17 17 17 16 16 16 16 16 15 14 13 14 16 17 17
22 25 29 34 36 37 40 42 43 45 48 45 42 39 40 45 43 38 35 33 33 32 30 28 28 28 29 30 31 32 31 30 29 27 25 25 26 27 27 26 27 29 31 33 34 33 33 30 27 25 23 18 14 14 15 15 15 16 17 18 18 17 16 17 17 17 17 17 16 16 16 16 16 15 15 14 14 13 12 11 12 14 15 15 16
21 23 26 31 33 34 38 41 42 44 44 43 43 43 44 47 47 43 38 35 37 35 31 28 27 27 28 29 29 30 31 29 27 26 25 25 26 26 26 25 25 28 31 32 33 32 32 29 24 20 17 14 11 14 15 14 14 14 15 15 14 14 14 14 14 14 14 14 14 14 14 14 14 13 12 11 11 10 10 11 11 12 13 15 15
22 20 23 29 30 31 36 41 42 43 44 42 44 46 47 47 47 46 42 37 36 35 33 31 29 27 27 28 28 27 27 27 25 25 24 25 26 26 25 24 25 27 29 31 31 31 31 28 21 16 13 11 11 13 15 15 13 11 11 11 11 11 11 11 11 11 12 12 12 12 12 12 11 10 9 8 8 9 9 9 10 11 13 14 14
25 20 25 28 23 22 33 42 44 43 43 41 42 44 46 45 44 44 41 36 35 35 35 34 31 28 27 27 26 25 25 25 24 23 23 24 25 25 24 23 24 27 28 30 29 29 30 25 18 15 12 10 10 13 16 15 10 8 8 8 9 9 8 9 9 9 10 10 10 10 10 9 8 7 6 6 7 8 8 8 10 12 13 13 13
30 25 28 27 16 13 30 43 46 43 42 42 42 43 44 45 44 43 39 36 35 35 35 35 34 31 29 28 27 25 25 25 24 23 22 24 25 24 24 23 24 25 27 28 27 28 27 23 18 15 13 9 10 13 15 10 5 4 5 7 8 7 8 8 8 7 7 8 8 8 7 5 4 3 4 6 7 6 6 8 10 12 12 11 12
36 32 30 25 14 17 30 42 48 44 41 43 44 45 45 46 45 43 41 39 38 38 37 36 35 33 31 30 29 27 25 24 25 24 24 24 25 24 24 23 22 24 26 26 26 26 25 21 17 15 13 7 9 12 10 6 4 3 3 5 7 8 9 9 8 6 4 4 4 3 2 2 1 2 4 5 5 5 6 9 11 11 10 11 13
42 40 33 24 19 24 28 35 45 45 41 42 44 45 46 46 46 45 44 42 42 41 39 37 36 35 33 31 32 30 27 25 25 26 26 25 24 23 23 23 21 23 25 24 24 25 23 19 15 15 12 4 7 9 5 4 4 2 2 6 7 8 10 10 8 6 4 2 2 2 2 1 1 2 4 4 4 5 7 10 10 10 10 11 13
45 44 40 31 25 27 27 29 40 44 41 40 42 44 45 46 46 45 44 43 43 42 42 40 39 37 35 33 33 32 30 27 26 26 26 25 23 22 23 21 21 23 24 23 23 21 18 14 12 15 11 2 5 5 3 3 2 4 2 6 5 6 8 9 8 6 5 5 4 3 2 0 2 2 3 3 4 6 9 10 9 9 10 11 11
46 45 44 39 33 31 30 29 33 40 42 41 40 41 42 43 43 43 42 42 42 42 43 43 42 40 38 36 35 33 31 29 28 27 25 24 23 22 22 21 21 23 24 22 20 15 12 10 11 14 9 2 3 3 4 3 3 4 5 7 5 5 6 7 7 5 5 4 4 2 1 1 1 2 3 4 6 8 9 9 8 9 9 9 9
49 47 46 45 41 37 36 33 32 36 40 42 42 42 41 41 41 41 42 42 42 43 43 44 44 43 41 39 37 34 32 30 29 28 26 24 22 22 21 19 19 21 23 20 14 11 9 9 12 13 9 5 5 5 3 2 2 3 6 7 5 4 4 6 6 4 3 3 3 1 1 1 2 2 4 5 7 8 8 7 7 8 7 7 8
51 50 50 50 47 42 41 39 37 38 39 41 44 46 46 44 43 43 42 43 44 44 44 45 45 44 43 42 40 36 33 31 29 28 26 24 23 22 20 18 18 20 22 17 12 10 8 10 13 12 10 9 9 7 3 1 0 1 5 6 5 3 4 6 4 2 1 1 1 1 1 1 1 2 4 5 6 6 6 7 7 6 5 6 6
53 53 52 54 52 48 46 44 43 43 43 43 44 47 49 48 47 46 46 45 45 45 46 46 46 46 45 44 42 39 36 34 31 30 28 26 24 23 20 18 19 21 21 16 14 11 9 11 12 12 13 13 13 10 7 3 1 1 3 5 3 2 4 6 4 2 0 0 0 1 1 0 1 2 3 4 4 5 5 5 4 4 5 5 3
55 54 54 55 56 55 53 50 49 47 47 47 46 47 49 50 49 49 49 49 49 48 48 47 47 49 49 46 44 42 39 37 35 33 31 28 25 24 23 20 20 22 22 16 16 14 11 11 11 13 14 16 16 13 10 7 4 4 2 3 0 1 3 4 4 2 1 2 1 2 1 1 1 1 1 2 3 3 3 3 2 4 5 3 1
57 57 56 56 57 59 59 57 55 52 51 51 49 48 49 50 50 50 50 51 51 52 51 49 48 50 51 49 45 42 41 41 39 37 35 32 28 26 26 24 22 23 23 17 18 17 14 14 12 14 16 17 16 13 12 8 6 4 2 2 1 2 3 2 3 2 2 2 3 3 1 1 3 2 1 1 2 1 1 1 3 5 4 2 3
59 58 58 57 58 60 61 60 59 58 56 54 52 49 49 49 50 50 50 51 52 52 53 51 48 49 51 51 48 43 42 42 42 40 38 35 32 29 28 28 24 24 24 19 19 19 17 16 14 15 17 18 15 10 9 9 8 4 1 2 0 2 2 1 3 2 2 4 5 3 4 7 6 3 1 1 1 1 2 3 5 5 4 4 4
62 61 60 59 60 61 62 62 62 62 61 59 56 53 51 50 50 51 50 50 50 52 53 50 48 48 49 51 50 47 43 43 44 43 40 36 34 32 30 29 26 24 25 21 20 21 19 17 15 15 19 20 15 10 11 12 11 7 3 2 2 0 2 1 4 2 3 5 5 4 9 9 6 3 2 2 3 3 3 5 6 6 5 5 4
65 64 63 62 62 63 63 64 64 65 65 63 60 58 56 54 52 52 52 51 51 51 51 50 47 47 46 46 48 49 47 45 44 43 40 37 35 34 31 29 27 25 25 22 21 23 20 18 16 16 19 21 20 14 15 16 14 11 6 3 1 1 1 1 3 2 3 5 4 6 9 9 7 5 3 4 4 4 4 6 7 6 6 6 5
67 67 66 65 64 64 65 66 65 66 68 67 65 62 60 58 57 54 53 52 51 51 51 50 48 47 45 43 43 45 47 47 46 43 40 37 36 35 32 30 28 26 26 23 22 23 21 18 17 18 19 23 24 17 16 18 15 12 8 6 4 1 2 1 1 1 2 4 2 6 8 8 8 6 5 5 5 5 5 6 8 6 6 6 5
68 69 68 68 67 66 66 67 67 67 69 71 69 66 63 62 61 59 56 53 52 51 51 50 49 48 47 44 42 41 43 46 47 45 42 40 38 35 33 32 30 27 26 24 23 24 22 20 19 20 20 24 26 19 17 19 14 11 10 8 6 2 4 3 1 1 2 2 0 6 8 8 7 6 5 5 6 6 5 7 8 7 7 7 5
70 70 70 70 70 70 69 69 70 69 70 73 73 72 69 67 64 62 60 57 54 52 52 51 50 50 49 47 44 41 40 42 44 44 43 43 40 36 34 33 31 27 26 25 24 24 23 22 21 21 22 24 27 23 19 18 15 13 11 9 8 4 4 4 1 2 4 1 0 5 8 6 6 5 5 5 5 7 6 6 8 8 7 7 6
70 71 71 72 72 73 73 73 73 72 72 74 75 75 74 72 69 65 64 62 58 55 54 52 50 50 49 48 47 44 41 40 41 42 42 42 41 38 35 33 31 26 25 26 25 25 24 23 22 21 22 24 27 24 20 19 17 15 11 8 8 6 5 4 2 2 4 2 0 5 8 5 5 4 5 4 5 6 7 6 8 9 9 8 7
69 70 71 73 73 74 75 76 76 76 76 76 77 78 77 75 72 69 67 64 62 60 57 55 52 50 49 49 48 46 43 41 40 41 41 41 40 39 35 34 33 29 27 27 24 25 25 24 23 21 21 24 26 25 22 19 17 14 10 8 8 7 7 6 4 3 4 2 1 5 8 6 4 4 3 4 4 6 7 7 8 9 10 9 8
68 69 70 71 73 74 75 77 78 79 79 79 78 79 79 78 76 73 70 68 65 63 61 59 56 52 50 49 47 46 45 43 41 41 41 41 40 39 36 36 36 33 31 27 23 25 26 25 24 22 23 25 26 25 22 19 17 13 11 11 10 8 8 8 6 4 4 4 2 4 8 7 4 3 3 3 4 5 7 8 8 9 11 10 9
65 67 68 69 71 72 74 76 77 79 80 81 81 81 80 80 78 76 74 72 70 67 65 64 61 57 53 51 48 46 45 44 43 41 41 42 42 40 38 38 37 34 32 27 24 25 26 26 25 25 26 26 25 24 20 18 18 15 14 14 12 9 8 7 7 5 5 6 3 4 8 9 6 4 3 3 4 5 6 8 8 8 10 12 11
61 64 66 66 67 69 71 73 75 77 78 80 82 83 83 83 81 80 78 77 75 73 71 69 67 64 60 56 52 49 47 45 44 42 41 43 44 42 40 40 38 35 33 28 25 25 26 27 28 28 28 26 24 24 20 18 17 17 18 16 13 11 10 9 8 6 5 5 4 5 9 11 9 6 4 3 3 4 5 7 8 8 9 11 12
55 59 63 64 64 65 68 71 73 75 75 76 78 81 84 85 84 83 82 81 79 78 76 75 73 70 67 63 58 54 52 49 46 43 42 43 45 43 42 42 40 37 35 30 26 26 27 29 31 30 29 27 26 25 22 18 17 19 18 15 13 11 11 11 8 6 7 4 4 6 9 11 11 9 6 4 3 3 3 4 6 8 8 9 12
49 53 57 60 60 62 65 68 71 73 73 73 74 76 79 81 82 82 81 80 79 78 78 77 76 73 71 67 62 58 56 53 50 46 42 44 47 47 47 47 43 40 38 32 28 28 29 32 33 32 30 29 29 26 24 20 18 20 17 14 13 10 12 12 8 7 7 4 4 6 8 10 11 10 9 6 4 3 2 3 4 6 7 8 9
45 49 52 54 55 57 60 64 68 70 71 71 71 73 74 75 76 77 77 76 75 75 75 74 74 73 71 68 64 60 58 56 53 49 44 44 48 50 51 50 45 42 40 34 31 31 33 34 34 33 30 29 30 28 26 23 20 19 18 17 15 13 14 13 11 10 7 3 5 7 8 10 10 9 10 9 6 4 2 1 2 3 5 7 8
43 47 49 50 51 52 56 60 63 65 67 68 69 70 71 72 72 73 73 71 70 70 70 70 69 69 68 66 63 60 58 57 54 51 46 46 50 53 53 51 46 44 42 37 34 34 35 36 36 35 31 28 29 29 29 27 23 21 20 18 17 16 17 16 14 12 8 5 7 9 8 9 11 10 10 10 9 6 3 1 0 1 3 5 7
41 44 46 47 48 50 54 58 60 61 62 64 65 66 68 69 70 70 70 69 67 66 65 65 65 64 64 63 61 59 58 57 55 52 48 47 51 55 55 52 48 47 45 41 37 35 36 38 38 37 33 30 30 30 29 28 26 24 21 19 18 18 20 21 19 15 11 9 10 10 9 10 13 14 12 11 11 9 6 3 2 2 2 3 5
40 42 43 44 44 46 51 55 57 58 59 61 62 63 65 66 67 68 68 67 65 63 62 61 61 60 61 60 59 58 57 56 54 53 50 48 53 57 56 53 51 51 48 44 41 38 36 38 41 38 36 35 33 30 29 29 28 27 25 22 20 21 23 24 23 19 14 11 13 14 11 10 14 16 14 12 11 10 7 5 4 3 4 3 4
39 40 40 41 42 43 47 50 53 55 56 58 59 60 62 63 64 65 65 65 64 63 61 60 58 58 58 58 57 56 56 55 54 53 51 50 54 59 59 55 53 53 50 46 43 40 37 39 42 41 40 40 37 33 32 31 30 29 27 24 22 24 25 25 25 22 17 13 13 14 13 13 15 16 15 13 11 9 8 7 6 5 5 5 4
38 38 38 38 39 41 43 46 49 50 51 53 54 56 58 60 61 62 63 63 63 62 61 59 58 57 57 57 57 56 55 54 54 53 51 52 55 60 61 58 55 55 52 48 44 41 39 39 41 43 42 41 39 36 33 32 32 31 29 25 22 26 28 28 27 24 20 16 12 13 14 14 15 16 16 14 11 10 8 7 7 7 6 7 6
36 36 36 35 36 38 40 43 45 46 46 47 48 50 52 54 57 58 60 61 61 61 61 59 58 57 57 57 56 56 55 54 54 54 53 53 56 60 63 60 57 56 54 50 46 43 42 40 40 42 42 41 40 38 33 33 33 31 31 28 26 29 29 29 28 24 21 18 15 14 15 15 16 17 16 14 12 12 9 7 7 7 7 7 7
35 35 34 34 34 35 37 39 41 41 41 42 43 44 46 48 51 53 55 57 58 60 60 59 58 57 56 56 57 56 55 54 55 56 54 55 58 61 63 62 59 57 56 53 49 47 45 43 41 42 42 41 39 37 34 34 34 31 30 32 33 33 32 31 30 25 22 20 17 16 17 17 17 19 18 15 13 12 11 8 7 7 7 7 7
33 33 33 33 33 32 33 35 36 36 37 38 38 40 41 43 45 48 50 53 55 57 59 59 58 57 56 57 58 57 56 55 56 57 57 57 59 62 63 62 59 58 58 56 53 52 50 47 44 42 43 42 39 36 35 35 34 31 31 35 37 36 35 35 33 28 26 23 20 19 19 19 19 20 20 17 15 14 13 11 9 7 7 6 6
31 31 31 31 31 29 28 29 30 31 33 34 34 35 37 38 40 43 46 48 51 53 56 57 57 56 57 58 59 59 57 57 58 59 60 59 61 63 65 63 61 61 61 60 58 57 54 50 46 44 42 42 40 38 37 36 35 34 34 36 38 38 37 37 35 32 30 27 24 22 21 20 20 21 22 20 18 16 15 13 11 10 9 7 5
Wind_Direction
242 237 236 236 223 220 231 239 244 257 266 268 268 268 268 259 254 260 262 259 260 260 263 265 263 264 265 267 273 276 278 279 279 282 285 287 289 290 289 282 276 273 272 273 274 275 276 276 276 276 276 276 277 278 278 279 279 279 279 280 280 280 281 281 282 283 284 285 286 286 287 288 288 289 289 290 290 290 290 290 290 290 290 290 291
239 234 232 234 229 223 229 237 243 252 260 264 263 261 262 258 252 257 260 259 260 259 261 263 263 263 263 269 276 278 280 281 283 286 287 290 291 291 292 286 278 274 273 273 274 275 276 276 276 276 276 276 277 278 278 279 279 279 279 279 280 280 281 281 282 283 284 285 285 286 287 287 287 288 288 288 289 289 288 288 288 289 290 290 291
235 230 229 230 230 229 230 235 239 243 253 261 261 259 259 256 252 256 259 259 259 259 260 263 265 266 267 271 276 277 278 281 284 288 290 292 294 292 293 288 281 276 274 273 274 274 275 276 276 276 276 277 277 278 278 278 278 279 279 279 279 280 280 281 282 283 284 284 285 285 286 286 287 287 287 287 287 287 287 288 288 289 290 290 291
233 227 227 230 230 231 231 234 235 236 244 257 262 261 259 257 258 262 263 261 260 261 262 264 267 268 270 273 274 275 277 279 283 287 290 294 295 293 292 288 282 278 275 275 275 276 277 277 278 278 278 277 277 277 277 277 277 277 277 278 278 279 280 281 281 282 283 284 284 285 285 285 285 285 285 285 286 286 287 288 289 289 289 290 291
232 228 227 230 231 231 230 233 235 235 238 247 256 261 262 262 265 268 267 264 262 262 264 266 267 269 271 273 273 274 276 278 283 287 290 294 295 293 291 286 283 283 282 282 282 282 281 280 279 278 277 276 275 275 274 274 274 275 276 276 277 278 279 280 281 282 283 284 284 284 284 284 284 284 284 284 285 286 287 288 288 289 289 290 290
230 230 228 230 231 229 227 229 232 234 236 241 247 255 262 264 267 270 268 266 262 262 265 265 266 268 270 272 273 274 275 278 283 288 291 294 293 293 292 287 288 291 292 293 291 289 286 282 279 276 274 273 272 271 271 271 272 273 274 276 277 278 279 281 282 282 283 283 283 283 283 283 283 283 283 284 285 285 286 287 288 289 289 288 286
226 228 226 228 231 228 225 226 229 231 235 239 243 251 258 259 265 270 267 266 264 263 264 264 264 265 268 271 272 273 274 278 282 288 291 292 292 294 293 291 295 298 299 298 295 292 288 285 281 277 274 272 270 270 270 271 272 273 275 276 278 279 280 281 282 282 282 282 281 281 281 281 281 282 282 283 284 284 286 287 288 287 287 286 284
225 226 224 224 228 228 225 225 227 229 234 239 243 248 251 253 262 269 267 266 267 264 263 263 262 264 268 270 272 273 274 278 282 287 290 289 290 294 294 298 304 304 303 301 297 294 289 287 284 280 276 273 271 271 271 272 274 275 277 278 279 280 280 280 280 280 280 280 279 279 279 279 280 280 280 281 283 285 287 287 287 286 285 284 284
223 223 225 225 227 229 225 225 226 228 232 237 241 243 247 253 261 266 264 265 266 264 263 263 262 263 267 271 272 273 274 278 282 286 286 284 287 289 292 303 310 310 308 305 302 298 293 289 285 282 278 276 274 273 274 276 277 278 279 279 279 279 279 279 278 278 277 277 276 276 277 277 278 279 281 283 285 286 287 285 284 284 284 284 285
221 221 225 227 229 230 228 226 225 226 226 231 237 243 250 255 259 261 260 263 265 264 263 262 261 261 265 272 275 274 275 276 280 283 279 278 282 284 290 305 313 313 311 307 305 303 299 292 287 285 281 278 276 276 277 279 280 281 281 280 279 279 278 277 276 276 275 275 274 274 275 275 276 279 282 283 285 285 284 283 282 283 283 285 287
221 221 224 228 230 230 228 226 225 224 221 227 238 246 252 253 254 256 256 260 264 265 263 261 261 261 265 272 276 276 275 274 276 278 272 268 274 281 287 300 312 313 309 306 306 306 303 296 290 286 280 279 279 280 280 282 283 283 282 280 279 277 277 276 275 274 273 273 273 273 274 275 276 279 281 283 283 283 282 283 283 283 284 287 291
223 223 225 229 230 227 224 222 222 221 220 229 240 246 248 247 248 250 254 258 261 264 264 263 262 261 265 271 275 276 274 272 274 275 268 262 266 276 282 294 309 311 307 306 306 306 305 298 291 284 281 281 282 282 283 284 284 283 281 279 278 277 277 276 275 274 273 273 273 273 274 276 277 279 281 281 282 283 284 284 283 284 288 291 294
223 224 225 224 223 222 219 219 220 220 223 232 239 243 243 239 241 247 251 255 260 266 267 266 265 264 266 270 273 274 273 271 274 275 270 266 265 270 276 289 306 307 306 306 306 306 304 298 290 284 283 283 283 284 285 285 283 281 280 279 279 278 278 277 276 275 274 274 275 275 276 276 277 279 280 282 284 285 286 284 284 287 292 294 296
219 222 221 215 213 216 218 220 222 223 226 233 236 238 240 235 236 245 249 253 261 268 269 268 266 265 265 268 271 273 274 273 276 274 270 270 268 268 272 287 302 304 305 306 307 305 301 297 289 285 286 283 282 287 288 286 283 281 281 281 280 279 278 277 277 276 275 274 275 276 275 275 276 278 280 283 285 286 286 284 288 292 294 296 297
214 218 218 214 215 220 223 223 223 224 225 228 229 231 238 236 234 241 247 252 262 266 265 263 263 263 263 267 270 272 274 274 276 275 266 267 271 270 273 286 298 302 305 306 306 303 299 295 289 290 288 279 281 291 293 290 286 285 285 284 284 283 281 279 278 277 275 274 274 273 272 272 275 278 280 283 284 284 285 287 292 295 295 296 296
209 213 215 215 218 223 225 226 225 224 223 225 228 230 236 238 236 240 246 253 261 263 261 259 259 260 262 265 269 271 273 272 275 275 265 263 268 271 277 285 293 301 305 305 305 301 296 293 292 290 280 271 280 294 301 299 291 291 292 293 295 293 289 284 281 278 276 274 272 270 268 270 273 277 279 281 282 283 287 292 294 295 295 295 297
200 202 211 212 215 224 230 229 227 223 222 225 230 232 236 238 239 241 245 250 256 257 258 260 260 261 262 264 269 271 270 268 273 275 268 265 266 271 277 283 291 300 303 304 303 297 293 292 290 282 269 268 284 298 309 307 299 301 303 307 313 309 302 295 290 287 282 278 274 270 267 267 271 274 276 278 281 285 290 294 293 294 296 298 301
186 189 207 205 203 226 238 233 227 221 219 223 228 232 234 236 237 238 241 244 248 253 257 260 262 262 264 267 270 271 269 266 270 273 272 270 270 272 276 280 289 298 303 303 300 294 291 290 284 271 260 266 285 301 310 307 304 312 314 322 331 330 326 318 308 299 290 283 277 271 266 266 268 268 272 278 283 287 292 295 297 297 298 301 306
180 179 189 184 171 216 236 232 227 223 221 223 226 230 233 235 235 235 237 240 244 250 254 258 261 263 264 267 270 271 270 267 267 269 272 274 273 275 276 277 285 297 302 301 296 291 288 286 277 261 253 266 292 305 309 306 305 318 318 333 349 356 359 350 335 315 294 284 276 270 267 264 258 257 271 279 286 291 294 299 300 300 301 306 312
182 181 181 177 178 212 224 225 225 226 227 228 229 229 231 234 234 234 236 239 244 248 252 256 259 263 264 265 268 269 268 265 262 263 269 273 272 276 276 275 284 297 301 299 293 288 285 282 272 255 248 263 300 308 309 300 296 300 330 3 13 20 19 11 0 348 320 287 273 266 249 223 216 260 278 284 288 291 296 301 301 301 306 313 318
187 193 201 200 200 207 215 221 222 225 230 234 237 235 234 234 234 234 237 240 244 247 251 256 257 261 265 266 267 268 268 264 260 260 266 272 274 277 274 275 286 296 299 298 291 287 284 278 269 252 240 258 309 309 300 284 289 256 37 32 24 25 22 17 15 17 27 54 89 115 132 147 229 274 282 289 288 288 298 301 300 302 311 319 323
194 203 215 215 205 203 210 219 221 223 226 233 239 242 243 242 241 241 242 245 247 249 253 258 258 259 263 267 267 268 269 267 264 264 267 272 276 277 273 275 285 293 299 298 292 287 279 273 259 240 224 238 309 292 262 268 262 225 89 46 25 23 17 17 23 30 50 72 89 100 113 185 263 278 287 284 279 288 298 299 300 307 317 323 325
206 213 220 219 213 210 210 215 221 224 225 228 234 241 246 249 251 252 251 252 253 254 256 260 260 259 261 264 265 266 266 267 267 268 270 272 275 274 271 276 284 289 297 298 290 279 266 256 231 215 197 175 261 237 232 223 202 200 106 63 31 31 17 16 26 37 59 80 93 101 166 245 267 280 279 278 281 290 296 297 303 314 322 325 325
217 220 222 222 220 213 211 212 219 226 229 229 230 234 240 245 251 255 257 258 258 258 259 260 260 259 259 260 261 262 261 263 264 266 268 272 273 270 270 277 281 286 296 296 279 257 245 230 210 191 172 182 199 192 215 204 183 171 103 69 26 32 28 20 23 37 66 87 102 128 243 272 276 274 277 284 288 290 292 297 311 319 324 330 330
223 223 222 223 221 214 212 214 218 225 230 232 231 232 234 237 241 247 252 257 260 261 262 262 261 261 259 258 257 257 256 257 258 259 262 270 271 265 266 273 275 281 293 287 254 235 225 218 206 180 174 187 184 177 182 166 27 87 91 63 13 17 38 23 17 24 55 88 112 246 273 292 266 278 287 293 292 289 294 307 318 322 331 341 337
226 227 225 224 223 218 216 217 219 223 228 232 233 233 234 235 237 240 244 249 254 258 261 264 265 265 262 258 254 252 252 252 252 254 257 264 267 260 257 269 277 280 289 276 235 223 214 214 204 184 186 188 184 178 177 197 220 151 92 55 3 1 27 16 21 32 49 83 4 31 44 27 294 298 297 293 292 293 303 317 322 335 354 356 353
228 230 229 227 225 223 223 224 225 225 227 232 234 233 234 236 238 240 242 245 248 251 255 260 263 265 264 261 254 248 249 252 251 252 254 259 262 256 248 262 280 281 287 270 229 224 220 214 203 194 195 189 185 182 183 205 209 185 129 66 331 307 351 1 32 45 88 80 43 32 351 304 305 312 301 284 290 301 314 329 344 14 21 24 78
230 232 232 230 228 227 227 229 231 231 229 231 234 235 234 236 239 241 243 245 247 250 252 255 258 260 262 262 257 249 247 251 253 253 254 255 257 254 246 254 274 279 285 268 231 229 227 216 206 202 200 193 191 185 187 207 215 198 146 121 202 286 301 335 22 19 72 51 7 354 325 123 112 111 130 258 285 319 5 42 39 44 54 86 99
232 233 233 232 230 229 230 230 232 233 233 234 235 236 235 236 239 242 244 246 248 250 251 253 254 255 256 259 259 253 248 250 253 254 254 254 254 254 248 250 265 273 279 269 233 228 229 219 210 204 200 197 194 197 206 214 225 232 189 152 33 306 258 336 2 1 42 15 0 24 108 112 109 112 139 187 159 111 99 79 61 68 91 105 93
235 235 235 233 232 231 231 232 232 233 235 237 238 239 238 238 240 243 245 247 249 250 252 253 253 253 253 254 256 255 252 251 253 253 254 254 251 252 250 248 259 267 272 268 233 224 227 219 213 207 203 198 191 213 234 224 232 249 238 194 43 49 193 29 2 15 30 4 15 96 116 110 103 103 127 141 131 121 106 87 77 87 109 105 94
238 238 238 236 234 233 233 233 233 233 234 237 239 241 242 240 241 243 245 247 249 251 252 253 253 253 253 253 253 254 252 251 251 250 251 252 248 248 248 245 253 262 266 265 235 224 227 217 213 211 207 201 192 207 229 223 230 238 231 223 149 132 191 19 7 30 27 2 31 120 123 108 98 94 109 130 127 120 108 92 88 103 114 106 104
241 241 241 241 239 237 235 235 235 234 234 236 239 241 242 242 241 241 243 247 249 250 252 253 253 252 253 253 253 252 249 248 249 250 248 247 245 244 244 242 247 256 261 261 238 226 226 218 215 213 209 204 198 206 222 218 223 230 229 230 213 221 271 286 30 66 34 3 34 140 134 114 102 92 99 126 129 119 109 100 99 112 117 108 113
242 243 243 243 243 242 240 238 237 237 235 236 239 241 241 242 241 240 241 245 249 251 252 252 252 252 253 253 253 252 249 246 247 249 246 243 243 242 242 241 243 251 257 255 238 226 224 221 220 217 211 205 202 208 216 212 219 232 234 232 225 244 274 266 184 130 89 9 3 162 153 128 110 91 91 115 126 122 113 108 108 119 122 113 121
244 244 245 245 245 245 244 243 241 240 238 237 239 242 243 243 242 241 241 243 248 251 251 252 251 251 252 252 252 252 250 246 244 245 244 242 242 241 240 240 241 248 253 249 236 225 223 222 224 221 214 209 205 204 206 211 219 230 231 225 224 231 247 263 278 138 143 116 295 178 171 148 125 95 83 102 121 126 119 111 116 125 131 121 126
245 246 246 247 247 246 246 246 245 243 242 240 240 242 243 244 244 244 243 244 246 249 250 250 251 251 251 251 251 251 250 247 243 241 241 240 240 238 237 236 237 240 243 242 233 225 223 223 224 224 217 210 205 198 197 210 217 222 226 213 214 223 233 259 276 170 160 146 249 187 184 172 145 107 77 88 110 126 123 115 119 129 136 131 132
248 248 248 248 248 248 248 248 248 247 245 244 242 243 244 245 245 246 245 245 246 248 250 250 250 251 251 250 250 250 249 248 243 239 237 237 237 235 232 231 231 229 229 231 228 223 221 220 222 222 213 204 198 192 194 208 211 211 218 209 208 219 234 253 248 214 206 190 182 190 191 188 169 134 87 78 97 122 127 121 120 131 140 138 137
252 252 251 251 250 250 249 249 249 249 248 247 245 245 245 246 247 247 248 248 247 248 250 250 250 250 250 249 249 249 248 247 244 239 236 234 233 230 226 225 227 227 224 222 220 218 216 214 214 209 199 193 191 192 198 207 201 198 211 211 213 220 223 245 253 239 260 259 221 199 197 196 191 165 126 89 93 115 128 127 123 132 143 146 144
253 253 253 253 253 253 252 251 251 250 250 249 248 247 247 247 248 249 249 249 249 249 250 250 251 251 250 248 247 248 248 246 243 240 234 230 228 225 221 222 224 224 221 216 214 213 210 206 201 194 189 188 190 192 197 197 186 191 208 207 215 229 220 233 251 251 282 286 250 211 204 203 207 194 165 128 100 106 125 131 129 132 144 152 151
253 253 253 254 254 255 254 253 253 252 251 251 250 249 249 249 250 250 251 251 251 251 251 251 251 251 251 250 247 246 246 246 244 240 234 228 225 222 218 220 222 220 217 214 211 207 203 197 191 188 187 187 185 185 188 190 190 202 211 204 207 223 217 215 227 235 256 281 261 222 209 209 217 216 196 174 127 105 114 128 134 134 142 156 157
254 255 254 254 255 256 256 256 255 254 253 252 252 251 250 250 251 252 252 252 252 252 252 251 251 251 251 251 249 246 244 245 244 241 234 227 223 219 216 217 218 217 214 212 209 201 195 191 189 188 187 181 176 178 185 194 206 214 213 204 199 206 212 209 209 226 239 260 272 240 215 213 221 224 217 203 176 123 104 117 134 139 140 154 163
256 257 256 255 255 257 258 257 257 256 254 253 253 253 252 251 251 252 252 253 253 253 252 252 251 250 250 251 250 246 244 243 242 240 235 227 221 216 214 214 214 212 210 208 206 197 191 190 188 186 184 178 174 176 183 190 205 214 215 209 198 201 214 212 203 222 242 256 273 254 226 219 225 229 229 220 201 160 109 97 118 139 145 151 164
259 260 259 257 256 257 258 258 258 257 256 255 254 254 253 252 252 252 252 252 252 252 252 251 250 249 249 249 248 245 242 240 238 237 234 226 220 214 212 213 212 209 207 206 204 196 191 188 185 181 180 179 177 176 180 186 197 206 213 210 200 205 216 214 207 221 249 259 246 249 232 226 233 237 238 232 219 195 166 81 92 130 149 155 163
262 262 261 260 259 258 259 259 258 258 257 256 255 255 255 253 253 252 252 252 251 250 249 248 248 247 247 246 245 243 240 237 235 233 230 225 219 214 212 211 210 208 205 204 202 196 192 189 186 183 182 182 183 183 187 191 195 199 206 203 198 207 215 215 212 220 242 232 231 244 230 231 242 246 248 241 234 223 209 245 291 142 151 161 166
264 264 264 263 261 260 260 260 259 259 258 257 255 255 254 253 253 252 252 251 249 248 246 245 244 244 244 243 242 239 236 233 231 229 227 223 218 213 211 210 209 207 203 203 202 197 194 192 190 189 187 189 192 193 195 197 199 198 199 198 201 215 219 217 214 218 231 221 219 234 222 225 244 252 254 248 244 242 231 233 245 221 185 168 172
267 266 266 265 263 261 261 260 260 259 258 257 256 255 254 253 252 251 250 249 248 246 244 242 241 240 240 240 238 236 232 229 227 225 223 221 217 212 209 209 208 207 203 201 201 198 195 193 192 191 191 195 200 202 202 203 204 201 200 198 204 219 222 219 215 215 228 226 216 225 222 221 240 249 252 251 248 249 245 237 233 228 213 191 177
274 271 270 269 266 264 262 261 260 259 258 256 255 254 253 252 251 250 249 248 246 244 242 240 238 237 236 235 235 232 229 225 223 222 220 219 217 211 209 208 208 207 204 200 200 198 194 193 192 192 195 198 200 205 207 209 211 209 204 200 207 220 221 219 216 214 227 236 224 225 224 222 233 241 244 249 252 254 255 246 238 232 219 208 192
282 280 278 276 273 268 265 262 260 259 257 256 254 252 251 250 249 248 247 246 244 242 240 239 236 234 233 232 231 228 225 222 219 219 218 217 217 212 209 210 208 207 205 200 199 198 195 194 193 194 198 200 200 202 207 210 213 213 204 198 210 223 222 219 219 220 229 239 232 226 225 224 229 233 234 241 254 262 260 253 247 240 226 216 208
289 287 284 280 277 273 269 265 262 260 257 255 253 251 250 249 248 247 246 245 243 241 238 236 234 232 230 229 228 225 222 219 217 217 216 215 216 212 209 210 208 206 205 200 199 199 198 197 194 194 198 201 202 203 207 209 211 211 202 197 209 219 220 221 222 226 234 238 233 227 226 227 226 229 231 233 246 258 256 255 256 246 235 225 220
293 292 290 287 281 277 273 270 266 263 260 257 254 251 249 249 248 246 245 243 241 239 237 234 231 229 227 226 225 224 220 217 215 215 214 214 215 211 209 210 207 205 205 201 201 202 201 201 198 196 197 200 202 203 207 209 211 213 206 202 209 214 217 222 225 230 238 238 232 228 227 227 226 231 236 234 238 246 244 250 261 252 242 233 229
298 300 299 295 289 283 278 275 271 266 262 259 256 253 250 249 248 246 244 242 240 238 236 233 230 227 224 223 223 222 219 216 214 213 213 213 213 210 208 209 208 206 205 203 203 205 206 204 202 200 200 201 203 202 203 207 212 216 213 208 212 214 216 222 226 232 238 237 232 228 227 227 226 232 239 240 242 242 238 244 259 258 250 241 233
304 306 304 301 296 290 284 279 275 269 263 259 257 254 251 249 247 246 244 242 239 237 235 232 228 225 222 220 221 221 218 214 212 212 211 211 211 209 207 208 208 207 207 205 205 207 207 205 203 203 203 203 202 200 201 204 209 215 216 215 216 216 218 221 225 230 236 238 236 232 229 228 227 230 237 241 244 246 244 246 256 258 255 247 235
Height
10826 10832 10832 10831 10835 10836 10832 10829 10826 10825 10825 10824 10824 10825 10825 10823 10824 10828 10830 10830 10831 10831 10832 10833 10834 10836 10837 10839 10839 10840 10841 10841 10842 10843 10843 10843 10842 10841 10841 10840 10840 10841 10842 10843 10843 10843 10842 10842 10842 10842 10842 10842 10842 10842 10842 10842 10841 10841 10841 10841 10840 10840 10839 10839 10839 10839 10839 10839 10838 10838 10837 10836 10835 10834 10833 10832 10830 10829 10829 10827 10826 10825 10824 10822 10821
10818 10822 10822 10822 10825 10827 10825 10823 10822 10822 10823 10821 10821 10822 10822 10820 10820 10824 10827 10827 10827 10827 10828 10829 10830 10831 10832 10834 10835 10836 10836 10837 10838 10838 10839 10839 10838 10838 10837 10836 10836 10837 10838 10838 10838 10838 10838 10838 10838 10838 10838 10838 10838 10838 10838 10837 10837 10837 10837 10837 10836 10835 10835 10835 10835 10835 10835 10834 10834 10833 10833 10832 10831 10830 10829 10828 10826 10825 10824 10823 10822 10820 10819 10818 10817
10807 10811 10812 10812 10816 10820 10819 10816 10817 10818 10819 10818 10818 10819 10820 10817 10817 10821 10823 10823 10823 10824 10824 10825 10826 10827 10828 10829 10831 10831 10832 10833 10833 10834 10835 10835 10835 10834 10834 10833 10833 10833 10833 10834 10834 10834 10834 10834 10834 10834 10834 10834 10834 10834 10834 10833 10833 10833 10832 10832 10832 10831 10831 10831 10831 10831 10831 10830 10829 10829 10828 10827 10827 10826 10825 10823 10822 10821 10820 10819 10818 10816 10815 10814 10813
10797 10801 10803 10804 10807 10811 10811 10810 10811 10812 10815 10816 10815 10815 10816 10814 10815 10818 10819 10819 10820 10822 10822 10822 10823 10824 10824 10825 10826 10827 10828 10829 10830 10831 10832 10832 10832 10831 10831 10830 10829 10829 10829 10830 10830 10831 10831 10831 10831 10830 10830 10830 10830 10830 10829 10829 10828 10828 10828 10828 10827 10827 10827 10827 10827 10827 10827 10826 10825 10824 10824 10823 10822 10821 10820 10819 10818 10816 10815 10815 10814 10813 10812 10811 10810
10791 10793 10795 10796 10799 10803 10805 10805 10805 10807 10811 10813 10811 10811 10811 10810 10813 10815 10815 10817 10818 10819 10819 10819 10820 10821 10821 10822 10823 10824 10825 10826 10827 10829 10830 10830 10829 10828 10828 10828 10827 10827 10827 10828 10828 10828 10828 10828 10827 10827 10826 10826 10826 10825 10825 10824 10824 10824 10824 10824 10823 10823 10823 10823 10823 10823 10822 10822 10821 10820 10819 10818 10818 10817 10816 10815 10814 10813 10812 10811 10810 10810 10809 10808 10807
10785 10787 10789 10791 10793 10798 10800 10801 10801 10804 10808 10808 10808 10809 10809 10809 10811 10812 10812 10813 10815 10815 10815 10816 10817 10818 10818 10819 10820 10821 10823 10824 10825 10827 10828 10827 10827 10826 10826 10826 10826 10825 10825 10826 10826 10825 10825 10824 10823 10823 10822 10822 10821 10821 10820 10820 10820 10820 10820 10820 10819 10819 10819 10819 10819 10819 10818 10818 10817 10816 10815 10814 10813 10813 10812 10811 10810 10809 10808 10808 10807 10807 10806 10806 10805
10780 10781 10783 10786 10788 10793 10796 10796 10797 10801 10803 10804 10805 10806 10808 10808 10809 10809 10809 10810 10810 10811 10812 10813 10814 10816 10816 10817 10818 10819 10821 10822 10824 10825 10826 10826 10825 10825 10825 10825 10824 10824 10824 10824 10823 10823 10822 10821 10820 10819 10818 10818 10817 10817 10817 10817 10817 10817 10817 10816 10815 10815 10815 10815 10815 10814 10814 10814 10813 10812 10811 10810 10810 10809 10809 10808 10807 10806 10806 10805 10805 10804 10803 10803 10802
10773 10775 10777 10780 10782 10786 10790 10791 10793 10797 10799 10800 10803 10804 10806 10806 10805 10805 10805 10806 10807 10808 10809 10810 10811 10814 10815 10816 10817 10818 10819 10820 10822 10823 10824 10824 10824 10825 10825 10824 10823 10823 10822 10822 10821 10820 10819 10817 10816 10815 10815 10815 10814 10814 10814 10814 10814 10814 10814 10813 10812 10812 10812 10812 10811 10810 10810 10810 10809 10808 10808 10807 10807 10806 10806 10805 10804 10804 10803 10803 10802 10801 10801 10800 10799
10767 10769 10772 10775 10778 10781 10784 10786 10789 10793 10796 10798 10800 10801 10802 10801 10801 10801 10801 10802 10803 10805 10807 10808 10810 10812 10814 10816 10816 10816 10817 10818 10820 10822 10823 10822 10823 10824 10823 10823 10822 10821 10821 10820 10818 10817 10815 10814 10813 10812 10812 10812 10812 10811 10811 10811 10811 10811 10811 10810 10809 10808 10808 10808 10808 10807 10807 10806 10806 10805 10805 10804 10804 10803 10803 10802 10802 10801 10801 10800 10800 10799 10798 10798 10797
10764 10766 10769 10772 10775 10777 10780 10782 10785 10789 10792 10794 10795 10796 10797 10797 10796 10796 10797 10798 10800 10803 10805 10807 10809 10811 10813 10814 10814 10814 10814 10816 10818 10820 10821 10821 10822 10822 10821 10821 10820 10819 10818 10817 10816 10814 10812 10811 10810 10810 10810 10809 10809 10809 10809 10809 10809 10808 10808 10807 10806 10805 10805 10805 10804 10804 10803 10803 10803 10802 10802 10802 10801 10801 10800 10800 10799 10799 10798 10798 10797 10797 10796 10796 10795
10762 10765 10768 10769 10772 10774 10776 10779 10782 10785 10788 10790 10791 10792 10793 10792 10792 10792 10793 10795 10797 10800 10802 10805 10808 10810 10811 10812 10812 10811 10811 10813 10816 10818 10819 10819 10819 10820 10819 10819 10818 10817 10816 10814 10813 10811 10810 10808 10808 10808 10807 10807 10807 10807 10807 10807 10806 10806 10805 10804 10803 10802 10802 10801 10801 10801 10800 10800 10800 10800 10799 10799 10799 10798 10798 10797 10797 10797 10796 10796 10795 10794 10794 10794 10793
10760 10763 10765 10766 10768 10771 10773 10777 10779 10781 10783 10785 10786 10788 10788 10788 10787 10788 10789 10792 10795 10797 10800 10803 10806 10808 10809 10809 10809 10809 10809 10811 10814 10816 10816 10816 10817 10817 10817 10817 10817 10815 10814 10812 10810 10809 10807 10806 10805 10805 10805 10805 10806 10805 10805 10805 10804 10803 10802 10801 10800 10800 10799 10799 10798 10797 10797 10796 10796 10797 10797 10796 10796 10796 10796 10795 10795 10795 10794 10794 10793 10793 10792 10792 10791
10757 10759 10760 10762 10766 10769 10772 10774 10775 10778 10780 10781 10783 10783 10783 10783 10783 10784 10786 10789 10793 10796 10798 10801 10803 10804 10806 10806 10806 10806 10807 10809 10811 10813 10813 10813 10814 10814 10815 10815 10815 10813 10811 10810 10808 10807 10805 10804 10803 10803 10803 10804 10804 10803 10803 10803 10802 10801 10799 10798 10798 10797 10797 10796 10795 10795 10794 10793 10793 10794 10794 10794 10794 10794 10794 10793 10793 10793 10792 10792 10791 10791 10791 10790 10789
10755 10757 10758 10760 10764 10767 10768 10770 10771 10775 10777 10778 10778 10778 10777 10778 10779 10781 10784 10788 10792 10794 10796 10798 10800 10801 10802 10803 10804 10804 10805 10807 10808 10810 10810 10810 10811 10812 10812 10813 10813 10811 10810 10807 10806 10804 10803 10802 10801 10801 10802 10803 10802 10802 10802 10801 10800 10798 10797 10796 10795 10795 10795 10794 10792 10792 10791 10791 10791 10791 10792 10792 10792 10792 10792 10792 10792 10791 10791 10791 10790 10790 10789 10788 10787
10754 10755 10757 10759 10762 10764 10764 10765 10768 10770 10772 10772 10772 10772 10772 10773 10776 10779 10783 10788 10789 10791 10793 10795 10796 10797 10798 10800 10800 10801 10803 10804 10806 10807 10807 10808 10808 10809 10810 10811 10811 10809 10808 10806 10804 10802 10801 10800 10800 10800 10801 10801 10801 10801 10800 10799 10798 10796 10795 10794 10793 10793 10793 10791 10790 10790 10789 10789 10789 10789 10790 10790 10790 10791 10791 10791 10790 10790 10790 10790 10789 10788 10788 10787 10786
10751 10753 10755 10757 10759 10761 10761 10763 10764 10766 10767 10767 10767 10768 10768 10770 10774 10778 10783 10786 10786 10788 10790 10791 10793 10794 10796 10797 10798 10799 10800 10802 10803 10804 10804 10805 10806 10807 10808 10809 10809 10807 10806 10804 10802 10801 10799 10798 10798 10799 10799 10800 10800 10800 10799 10797 10796 10795 10794 10793 10792 10791 10790 10789 10789 10788 10788 10788 10788 10788 10788 10789 10789 10789 10789 10790 10789 10789 10789 10788 10788 10787 10786 10785 10784
10749 10751 10753 10755 10757 10760 10760 10760 10761 10761 10762 10763 10763 10764 10766 10769 10774 10778 10782 10783 10783 10784 10786 10788 10790 10791 10793 10795 10796 10797 10798 10800 10801 10801 10802 10803 10804 10804 10805 10806 10806 10805 10804 10802 10800 10799 10797 10797 10797 10797 10798 10798 10798 10798 10797 10796 10795 10794 10793 10791 10790 10789 10788 10787 10787 10786 10786 10786 10786 10786 10787 10787 10788 10788 10789 10789 10789 10789 10788 10788 10787 10786 10785 10784 10783
10745 10747 10750 10752 10755 10760 10759 10756 10757 10757 10758 10759 10759 10760 10762 10766 10771 10774 10777 10779 10779 10780 10782 10784 10787 10789 10791 10793 10794 10796 10797 10798 10798 10799 10800 10801 10802 10802 10803 10803 10803 10803 10801 10800 10798 10796 10795 10795 10796 10796 10796 10797 10797 10796 10796 10795 10794 10793 10792 10790 10789 10788 10787 10785 10785 10785 10785 10785 10785 10785 10786 10786 10787 10787 10788 10788 10788 10788 10787 10787 10786 10785 10784 10783 10782
10741 10742 10746 10747 10749 10756 10755 10751 10752 10753 10753 10755 10755 10757 10759 10762 10767 10770 10773 10775 10776 10778 10779 10781 10784 10787 10789 10791 10792 10794 10794 10795 10796 10797 10799 10799 10800 10800 10801 10801 10801 10800 10799 10797 10796 10794 10793 10794 10795 10795 10795 10796 10796 10795 10794 10794 10793 10792 10791 10789 10788 10787 10786 10785 10784 10784 10783 10784 10784 10784 10785 10785 10786 10787 10787 10787 10787 10787 10787 10786 10785 10784 10783 10782 10781
10737 10738 10740 10740 10741 10747 10747 10745 10748 10749 10750 10751 10752 10754 10756 10760 10764 10767 10770 10772 10773 10775 10777 10779 10782 10784 10786 10788 10789 10791 10792 10793 10794 10796 10797 10797 10798 10799 10798 10798 10798 10798 10796 10795 10793 10792 10792 10792 10793 10794 10794 10795 10794 10794 10793 10793 10792 10791 10790 10789 10787 10787 10786 10785 10784 10783 10783 10783 10783 10784 10784 10785 10786 10786 10786 10786 10786 10786 10786 10786 10785 10784 10783 10782 10781
10733 10734 10734 10735 10737 10739 10740 10742 10744 10746 10748 10749 10749 10751 10754 10757 10761 10764 10766 10768 10770 10773 10775 10777 10779 10781 10783 10785 10786 10787 10789 10791 10792 10793 10794 10795 10796 10796 10796 10796 10796 10795 10794 10792 10791 10790 10790 10791 10792 10792 10793 10793 10793 10793 10793 10791 10790 10790 10789 10787 10787 10786 10786 10785 10784 10784 10783 10783 10783 10784 10784 10785 10785 10785 10786 10786 10786 10786 10786 10785 10784 10783 10782 10781 10780
10728 10729 10731 10732 10734 10735 10737 10739 10741 10743 10746 10747 10747 10749 10751 10754 10757 10759 10762 10765 10767 10770 10772 10775 10777 10779 10781 10782 10783 10784 10786 10788 10789 10791 10791 10792 10793 10794 10793 10793 10794 10793 10792 10790 10789 10789 10789 10789 10790 10792 10792 10792 10792 10792 10791 10790 10790 10789 10788 10787 10786 10786 10786 10786 10785 10784 10783 10783 10783 10784 10784 10785 10785 10785 10785 10785 10785 10785 10785 10784 10783 10783 10781 10780 10779
10724 10726 10728 10730 10731 10733 10735 10737 10739 10741 10743 10745 10746 10747 10749 10751 10753 10755 10757 10760 10763 10767 10770 10772 10774 10777 10779 10780 10780 10782 10783 10785 10786 10787 10788 10790 10791 10791 10791 10792 10792 10791 10790 10788 10788 10787 10788 10788 10789 10790 10791 10790 10792 10791 10790 10789 10789 10788 10786 10786 10786 10785 10786 10785 10785 10784 10784 10783 10783 10784 10784 10784 10784 10784 10784 10784 10785 10784 10784 10784 10783 10782 10781 10779 10778
10721 10722 10724 10727 10729 10731 10733 10735 10737 10739 10740 10742 10744 10746 10748 10749 10750 10752 10753 10756 10759 10763 10766 10768 10770 10773 10776 10778 10779 10781 10782 10783 10784 10785 10786 10788 10789 10789 10790 10791 10791 10790 10788 10787 10786 10786 10786 10787 10788 10789 10789 10789 10790 10790 10789 10789 10788 10788 10785 10785 10785 10785 10785 10785 10785 10784 10784 10783 10783 10784 10784 10783 10783 10783 10783 10784 10784 10783 10783 10783 10782 10781 10780 10779 10778
10717 10718 10720 10723 10725 10727 10729 10731 10733 10736 10738 10739 10741 10743 10745 10747 10749 10750 10751 10753 10756 10758 10761 10763 10765 10769 10773 10776 10778 10779 10780 10781 10782 10783 10784 10786 10787 10788 10789 10789 10789 10788 10786 10785 10785 10785 10786 10787 10787 10787 10787 10789 10789 10788 10788 10787 10787 10786 10784 10784 10784 10785 10785 10785 10784 10784 10784 10783 10783 10783 10783 10782 10782 10782 10782 10782 10782 10782 10782 10782 10781 10780 10779 10778 10777
10712 10714 10716 10718 10721 10724 10725 10728 10730 10732 10735 10737 10739 10740 10742 10744 10745 10748 10750 10752 10754 10755 10757 10758 10762 10765 10769 10772 10775 10776 10777 10778 10780 10781 10783 10785 10786 10787 10788 10787 10787 10786 10785 10784 10784 10784 10785 10786 10786 10786 10787 10787 10787 10786 10786 10786 10786 10785 10784 10783 10784 10784 10784 10784 10784 10784 10783 10783 10782 10782 10782 10781 10781 10781 10781 10781 10781 10781 10781 10780 10780 10779 10778 10777 10777
10709 10710 10712 10715 10717 10720 10722 10724 10726 10728 10730 10733 10735 10737 10739 10740 10742 10745 10747 10749 10751 10753 10755 10757 10760 10761 10763 10766 10770 10774 10775 10776 10778 10779 10781 10783 10784 10785 10786 10785 10785 10784 10784 10783 10783 10783 10784 10784 10785 10786 10787 10787 10786 10785 10785 10785 10785 10784 10783 10782 10783 10784 10784 10783 10783 10783 10783 10782 10782 10781 10780 10780 10780 10780 10780 10780 10780 10780 10780 10779 10779 10778 10777 10777 10777
10705 10706 10709 10711 10713 10716 10718 10720 10722 10724 10726 10728 10730 10733 10735 10737 10739 10741 10744 10746 10748 10750 10752 10755 10758 10758 10759 10761 10765 10770 10773 10773 10774 10777 10778 10780 10782 10783 10783 10783 10782 10782 10782 10782 10782 10782 10782 10783 10784 10785 10786 10787 10786 10786 10786 10785 10785 10784 10783 10782 10782 10783 10783 10783 10783 10783 10782 10781 10781 10780 10779 10779 10779 10779 10779 10779 10779 10779 10779 10778 10778 10777 10777 10777 10777
10701 10703 10705 10707 10709 10712 10714 10716 10718 10720 10722 10724 10726 10728 10731 10733 10735 10738 10740 10742 10744 10746 10748 10752 10755 10756 10757 10758 10761 10766 10769 10770 10771 10774 10776 10778 10779 10781 10781 10781 10780 10780 10780 10781 10781 10780 10781 10781 10782 10784 10785 10786 10788 10789 10787 10786 10786 10785 10783 10783 10782 10782 10783 10782 10782 10782 10782 10781 10780 10779 10778 10778 10778 10778 10778 10778 10778 10778 10778 10777 10777 10776 10777 10777 10777
10696 10699 10701 10703 10705 10707 10709 10712 10714 10716 10718 10720 10722 10724 10727 10729 10732 10734 10736 10738 10740 10742 10743 10747 10751 10752 10754 10756 10758 10762 10765 10767 10768 10770 10773 10775 10777 10778 10779 10779 10778 10779 10779 10779 10779 10779 10779 10780 10781 10782 10784 10786 10789 10790 10788 10787 10786 10785 10784 10783 10782 10782 10782 10782 10782 10782 10781 10781 10780 10779 10778 10778 10778 10778 10778 10778 10778 10777 10777 10777 10776 10776 10777 10777 10777
10692 10694 10696 10699 10701 10703 10705 10707 10710 10712 10714 10716 10718 10720 10722 10725 10728 10730 10732 10734 10736 10738 10739 10743 10746 10748 10750 10753 10755 10758 10761 10763 10765 10767 10771 10772 10773 10774 10776 10776 10776 10777 10777 10777 10777 10777 10778 10778 10779 10780 10782 10784 10786 10786 10787 10787 10786 10785 10783 10782 10782 10782 10781 10781 10782 10782 10781 10781 10780 10779 10778 10778 10777 10777 10777 10777 10777 10777 10777 10776 10776 10776 10777 10777 10777
10687 10689 10691 10693 10696 10698 10700 10702 10705 10707 10709 10711 10713 10715 10718 10720 10723 10726 10728 10730 10732 10734 10736 10739 10742 10745 10747 10749 10752 10754 10757 10759 10761 10765 10769 10769 10768 10770 10773 10774 10774 10774 10775 10775 10775 10776 10776 10776 10776 10778 10780 10782 10784 10784 10785 10786 10785 10784 10783 10782 10781 10781 10780 10780 10781 10781 10781 10781 10781 10780 10779 10778 10777 10777 10776 10776 10776 10776 10776 10776 10776 10776 10777 10777 10777
10682 10684 10686 10688 10690 10692 10695 10697 10699 10702 10704 10706 10708 10710 10713 10715 10718 10721 10724 10726 10728 10730 10733 10735 10738 10741 10743 10746 10748 10750 10753 10755 10757 10761 10765 10764 10764 10767 10770 10771 10772 10772 10772 10772 10773 10774 10774 10774 10773 10775 10777 10779 10782 10784 10784 10784 10784 10784 10783 10781 10781 10781 10780 10780 10780 10779 10780 10781 10782 10781 10780 10778 10777 10777 10776 10776 10776 10776 10776 10776 10775 10776 10777 10777 10777
10678 10680 10681 10683 10685 10687 10689 10691 10694 10696 10699 10701 10702 10704 10706 10709 10713 10716 10720 10722 10724 10726 10728 10731 10734 10737 10739 10742 10744 10746 10749 10750 10753 10757 10760 10760 10761 10764 10767 10769 10770 10771 10771 10770 10770 10771 10771 10771 10771 10772 10774 10776 10779 10782 10783 10783 10783 10783 10782 10781 10781 10781 10781 10780 10779 10779 10779 10781 10782 10781 10780 10779 10778 10777 10776 10776 10775 10775 10776 10776 10775 10776 10777 10777 10778
10673 10675 10676 10678 10679 10681 10683 10685 10687 10690 10692 10695 10697 10698 10700 10703 10707 10711 10714 10717 10720 10721 10723 10726 10729 10732 10734 10737 10739 10742 10744 10746 10750 10753 10754 10756 10759 10761 10764 10766 10768 10769 10769 10768 10768 10768 10768 10768 10769 10769 10771 10773 10776 10779 10780 10781 10781 10781 10780 10780 10780 10781 10780 10780 10779 10779 10780 10781 10781 10781 10780 10780 10779 10778 10777 10776 10776 10775 10775 10776 10775 10776 10776 10777 10778
10668 10670 10671 10672 10673 10675 10677 10679 10681 10683 10686 10688 10690 10693 10694 10697 10701 10705 10708 10711 10714 10716 10718 10721 10724 10727 10729 10732 10734 10737 10740 10743 10746 10748 10749 10752 10755 10758 10761 10762 10763 10765 10765 10765 10765 10765 10765 10766 10767 10768 10769 10771 10773 10776 10777 10778 10779 10779 10778 10778 10779 10779 10780 10780 10780 10780 10780 10781 10780 10780 10780 10780 10780 10779 10778 10777 10776 10776 10775 10776 10776 10776 10776 10777 10777
10662 10664 10665 10666 10667 10669 10670 10672 10674 10675 10678 10681 10684 10686 10688 10690 10694 10697 10701 10704 10708 10710 10712 10715 10718 10722 10724 10727 10730 10732 10735 10738 10741 10744 10746 10749 10751 10754 10756 10758 10758 10760 10761 10762 10762 10762 10763 10763 10764 10765 10767 10769 10771 10772 10774 10776 10777 10777 10776 10777 10777 10778 10779 10780 10780 10781 10781 10781 10780 10779 10780 10780 10780 10779 10778 10778 10777 10776 10776 10776 10776 10776 10776 10777 10777
10656 10657 10658 10659 10661 10662 10663 10664 10666 10667 10670 10673 10676 10679 10681 10683 10686 10690 10693 10697 10700 10703 10705 10708 10711 10715 10719 10722 10725 10728 10731 10733 10737 10740 10742 10744 10746 10749 10752 10753 10754 10756 10758 10759 10759 10759 10760 10761 10761 10763 10765 10766 10768 10770 10772 10773 10774 10774 10775 10775 10776 10777 10779 10780 10781 10781 10781 10781 10779 10779 10779 10779 10780 10779 10779 10778 10777 10777 10776 10776 10776 10776 10776 10776 10777
10651 10651 10652 10653 10655 10655 10655 10655 10657 10659 10662 10665 10668 10670 10673 10675 10679 10682 10685 10688 10692 10695 10698 10701 10704 10708 10713 10717 10720 10723 10726 10729 10732 10735 10738 10739 10741 10745 10747 10749 10750 10752 10754 10756 10755 10756 10757 10758 10759 10761 10762 10764 10766 10769 10771 10772 10773 10773 10773 10774 10775 10776 10778 10780 10780 10780 10780 10779 10779 10778 10778 10779 10779 10779 10779 10778 10778 10777 10777 10776 10776 10776 10776 10776 10777
10646 10645 10645 10648 10650 10648 10647 10647 10647 10649 10653 10657 10659 10661 10664 10667 10671 10674 10676 10679 10683 10686 10690 10693 10696 10701 10705 10709 10714 10718 10721 10724 10727 10730 10733 10735 10737 10741 10743 10744 10746 10748 10750 10752 10753 10753 10754 10755 10756 10758 10761 10763 10764 10767 10769 10771 10772 10772 10772 10773 10774 10775 10776 10778 10779 10779 10778 10778 10778 10778 10778 10778 10779 10779 10779 10779 10778 10778 10778 10777 10777 10777 10777 10777 10777
10641 10639 10639 10642 10645 10643 10639 10638 10638 10640 10644 10648 10650 10651 10654 10658 10662 10665 10667 10670 10674 10677 10681 10684 10688 10693 10697 10702 10707 10711 10714 10718 10721 10724 10728 10730 10732 10735 10736 10737 10739 10742 10746 10749 10750 10751 10752 10752 10754 10756 10759 10761 10762 10765 10767 10769 10770 10771 10772 10772 10773 10774 10775 10776 10777 10777 10777 10777 10777 10778 10778 10778 10778 10779 10779 10779 10779 10778 10778 10778 10777 10777 10777 10777 10777
10637 10634 10634 10637 10639 10637 10633 10631 10631 10632 10635 10639 10642 10642 10645 10649 10652 10655 10658 10662 10665 10668 10671 10675 10679 10684 10688 10693 10698 10703 10707 10711 10714 10718 10722 10725 10727 10729 10730 10732 10735 10739 10743 10745 10746 10748 10749 10750 10752 10754 10757 10759 10760 10763 10765 10767 10769 10770 10771 10771 10772 10773 10774 10774 10775 10775 10776 10776 10777 10778 10777 10776 10777 10778 10778 10779 10779 10779 10779 10779 10778 10778 10777 10777 10777
10633 10630 10630 10632 10633 10632 10627 10624 10624 10626 10627 10630 10633 10634 10635 10639 10642 10645 10648 10652 10656 10659 10662 10666 10670 10675 10679 10684 10690 10695 10699 10703 10707 10711 10715 10719 10722 10724 10726 10729 10733 10736 10739 10741 10743 10745 10746 10748 10749 10752 10755 10758 10759 10761 10763 10765 10766 10768 10769 10769 10771 10772 10772 10773 10773 10774 10775 10775 10777 10777 10775 10775 10776 10778 10778 10779 10779 10779 10779 10779 10779 10778 10778 10777 10777
10628 10625 10625 10627 10627 10625 10621 10618 10618 10619 10620 10621 10624 10626 10627 10630 10632 10635 10639 10643 10647 10651 10654 10658 10662 10666 10670 10675 10681 10686 10691 10696 10700 10704 10708 10712 10716 10718 10722 10726 10729 10731 10735 10737 10739 10741 10743 10745 10747 10749 10752 10755 10757 10760 10762 10763 10764 10766 10767 10768 10769 10771 10771 10771 10772 10772 10773 10774 10776 10777 10775 10774 10776 10777 10778 10779 10779 10779 10779 10779 10779 10779 10778 10778 10777
10621 10620 10620 10620 10620 10618 10614 10611 10611 10612 10613 10613 10615 10617 10619 10621 10623 10627 10630 10634 10638 10642 10646 10650 10654 10658 10662 10667 10672 10678 10683 10688 10693 10697 10702 10706 10710 10713 10718 10721 10723 10726 10730 10733 10735 10738 10740 10743 10745 10747 10749 10752 10754 10758 10760 10762 10763 10764 10765 10766 10768 10769 10769 10770 10771 10772 10773 10774 10775 10775 10774 10775 10777 10778 10778 10778 10778 10779 10779 10779 10779 10779 10779 10778 10778
10614 10614 10614 10613 10613 10611 10607 10605 10604 10605 10605 10605 10607 10608 10610 10612 10614 10617 10621 10624 10629 10634 10638 10642 10646 10650 10654 10659 10664 10670 10676 10681 10686 10690 10695 10700 10704 10708 10713 10716 10718 10722 10726 10729 10731 10734 10737 10739 10742 10744 10746 10748 10752 10755 10758 10760 10762 10762 10763 10764 10766 10767 10768 10769 10770 10771 10772 10773 10774 10774 10774 10775 10777 10777 10778 10778 10778 10778 10778 10778 10778 10778 10778 10778 10778
10608 10607 10608 10607 10605 10603 10601 10599 10598 10597 10597 10598 10599 10600 10601 10603 10606 10608 10611 10615 10619 10624 10629 10634 10638 10642 10647 10652 10657 10663 10669 10674 10679 10684 10689 10694 10698 10703 10707 10711 10714 10719 10724 10727 10729 10731 10733 10736 10738 10741 10742 10745 10749 10752 10756 10759 10760 10760 10761 10762 10765 10767 10767 10768 10769 10770 10771 10772 10773 10774 10774 10775 10776 10776 10777 10777 10777 10778 10778 10778 10778 10778 10778 10778 10778
10602 10602 10601 10600 10598 10596 10594 10592 10591 10591 10591 10591 10591 10592 10594 10595 10597 10600 10603 10606 10610 10615 10620 10626 10631 10635 10640 10645 10650 10656 10662 10667 10673 10678 10683 10688 10692 10697 10701 10706 10710 10715 10720 10724 10726 10728 10729 10731 10734 10737 10739 10742 10745 10749 10753 10756 10758 10758 10759 10760 10763 10764 10766 10767 10768 10769 10770 10771 10772 10772 10773 10773 10774 10775 10775 10776 10776 10777 10777 10777 10777 10777 10777 10777 10778
10598 10596 10594 10593 10591 10589 10588 10586 10585 10585 10584 10584 10584 10585 10587 10587 10589 10592 10596 10599 10602 10607 10612 10618 10623 10628 10633 10638 10643 10649 10655 10661 10666 10671 10677 10681 10686 10691 10696 10701 10707 10711 10716 10719 10722 10724 10724 10726 10729 10731 10734 10737 10741 10745 10749 10752 10754 10756 10757 10758 10759 10761 10763 10765 10767 10768 10769 10769 10770 10770 10771 10772 10772 10773 10774 10775 10775 10776 10776 10776 10776 10776 10776 10776 10777
10594 10591 10589 10586 10584 10583 10582 10580 10579 10579 10579 10578 10578 10579 10580 10581 10583 10585 10588 10592 10595 10599 10603 10609 10616 10621 10627 10632 10636 10641 10648 10654 10659 10664 10670 10675 10679 10686 10692 10699 10704 10707 10710 10713 10715 10716 10718 10721 10724 10727 10730 10733 10736 10740 10744 10748 10751 10752 10754 10755 10757 10758 10760 10762 10764 10766 10766 10767 10768 10768 10768 10769 10770 10771 10772 10773 10774 10775 10775 10775 10775 10776 10776 10776 10776
10590 10587 10584 10581 10579 10578 10576 10575 10574 10574 10574 10573 10573 10574 10575 10576 10577 10579 10582 10585 10588 10592 10596 10602 10609 10615 10620 10625 10629 10634 10641 10647 10653 10658 10663 10668 10674 10681 10688 10693 10696 10699 10703 10706 10708 10709 10712 10716 10720 10723 10726 10729 10732 10735 10739 10743 10746 10748 10750 10752 10754 10756 10758 10760 10761 10762 10763 10765 10766 10766 10766 10767 10768 10769 10770 10771 10772 10773 10773 10774 10774 10775 10775 10775 10775